User: anonymous   Login
Location: Caltech
(34.1382°N, 118.1253°W)
Time: 11:41:23
(UTC-07:00)
Language:

PANSAT - Orbit

View from above orbital plane
View from above orbital plane
View from above satellite
View from above satellite

Ground track
Ground track

The orbit data is extracted from the following two-line orbital elements,

1 25520U 98064B   17118.92768233 +.00001247 +00000-0 +36084-4 0  9998
2 25520 028.4584 319.8591 0005295 175.7861 184.2779 15.28327264026432
Epoch (UTC): 28 April 2017 22:15:51
Eccentricity: 0.0005295
inclination: 28.4584°
perigee height: 477 km
apogee height: 484 km
right ascension of ascending node: 319.8591°
argument of perigee: 175.7861°
revolutions per day: 15.28327264
mean anomaly at epoch: 184.2779°
orbit number at epoch: 2643

The dashed part of the orbit path shows where the satellite is in the earth's shadow,  

DLR